Agadir Al Massira, Morocco

1:34 PM WET on January 17, 2018 (GMT +0000)
Agadir Al Massira

Weather History for GMAD - September, 2013

Change the Weather History Date:

Thursday, September 5, 2013

  Actual Average Record
Temperature  
Mean Temperature 73 °F -  
Max Temperature 82 °F - - ()
Min Temperature 64 °F - - ()
Cooling Degree Days 8    
Growing Degree Days 23 (Base 50)    
Moisture  
Dew Point 61 °F    
Average Humidity 67    
Maximum Humidity 88    
Minimum Humidity 37    
Precipitation  
Precipitation 0.00 in - - ()
Sea Level Pressure  
Sea Level Pressure 29.96 in    
Wind  
Wind Speed 3 mph ()    
Max Wind Speed 14 mph    
Max Gust Speed -    
Visibility 5.8 miles    
Events      
T = Trace of Precipitation, MM = Missing Value Source: Averaged Metar Reports

Daily Weather History Graph

Daily Weather History Graph

Search for Another Location

Airport or City:

Trip Planner

Search our weather history database for the weather conditions in past years. The results will help you decide how hot, cold, wet, or windy it might be!

Date:

Astronomy

Sep. 05, 2013 Rise Set
Actual Time 7:16 AM WEST 7:55 PM WEST
Civil Twilight 6:52 AM WEST 8:19 PM WEST
Nautical Twilight 6:23 AM WEST 8:48 PM WEST
Astronomical Twilight 5:54 AM WEST 9:17 PM WEST
Moon 7:11 AM WEST (9/5) 7:45 PM WEST (9/5)
Length of Visible Light 13h 27m
Length of Day
12h 38m
Waning Crescent, 0% of the Moon is Illuminated
Sep 5
Waning Crescent
Sep 5
New
Sep 12
First Quarter
Sep 19
Full
Sep 27
Last Quarter

Hourly Weather History & Observations

Time (WEST) Temp. Heat Index Dew Point Humidity Pressure Visibility Wind Dir Wind Speed Gust Speed Precip Events Conditions
12:00 AM 71.6 °F - 62.6 °F 73% 30.04 in 5.0 mi Calm Calm - N/A   Mostly Cloudy
1:00 AM - - - N/A% 0.00 in - North - - N/A   Partly Cloudy
2:00 AM 68.0 °F - 60.8 °F 78% 29.98 in 6.2 mi Calm Calm - N/A   Partly Cloudy
3:00 AM 66.2 °F - 60.8 °F 83% 29.98 in 6.2 mi Calm Calm - N/A   Partly Cloudy
4:00 AM 64 °F - 60 °F 81% 29.97 in 6 mi Calm Calm - -  
4:00 AM 64.4 °F - 59.0 °F 83% 29.95 in - Calm Calm - N/A   Clear
5:00 AM 64.4 °F - 60.8 °F 88% 29.95 in - Calm Calm - N/A   Clear
6:00 AM 64.4 °F - 60.8 °F 88% 29.95 in - Calm Calm - N/A   Clear
7:00 AM 66.2 °F - 60.8 °F 83% 29.95 in 6.2 mi Calm Calm - N/A   Mostly Cloudy
8:00 AM 68.0 °F - 62.6 °F 83% 29.98 in 6.2 mi Calm Calm - N/A   Mostly Cloudy
9:00 AM 69.8 °F - 62.6 °F 78% 29.98 in 6.2 mi Calm Calm - N/A   Unknown
10:00 AM 71 °F - 62 °F 66% 29.98 in 5 mi NNE 2.3 mph - -   Mostly Cloudy
10:00 AM 71.6 °F - 62.6 °F 73% 29.98 in 5.0 mi Variable 1.2 mph - N/A   Mostly Cloudy
11:00 AM 73.4 °F - 62.6 °F 69% 29.98 in 5.0 mi Calm Calm - N/A   Mostly Cloudy
12:00 PM 77.0 °F - 62.6 °F 61% 29.98 in 6.2 mi Calm Calm - N/A   Partly Cloudy
1:00 PM 81 °F - 60 °F 39% 29.95 in 5 mi WSW 6.9 mph - -   Scattered Clouds
1:00 PM 80.6 °F 81.5 °F 60.8 °F 51% 29.95 in 5.0 mi WSW 6.9 mph - N/A   Partly Cloudy
2:00 PM 80.6 °F 81.8 °F 62.6 °F 54% 29.95 in 5.0 mi West 11.5 mph - N/A   Partly Cloudy
3:00 PM 82.4 °F 82.9 °F 60.8 °F 48% 29.92 in 6.2 mi WSW 12.7 mph - N/A   Partly Cloudy
4:00 PM 82 °F - 60 °F 37% 29.92 in 6 mi West 13.8 mph - -  
4:00 PM 82.4 °F 82.9 °F 60.8 °F 48% 29.92 in 6.2 mi West 13.8 mph - N/A   Unknown
5:00 PM 82.4 °F 82.9 °F 60.8 °F 48% 29.92 in 6.2 mi WSW 12.7 mph - N/A   Partly Cloudy
6:00 PM 80.6 °F 81.1 °F 59.0 °F 48% 29.89 in 6.2 mi SW 12.7 mph - N/A   Partly Cloudy
7:00 PM 77 °F - 62 °F 50% 29.91 in 6 mi SW 10.4 mph - -   Scattered Clouds
7:00 PM 77.0 °F - 62.6 °F 61% 29.89 in 6.2 mi SW 10.4 mph - N/A   Partly Cloudy
8:00 PM 71.6 °F - 62.6 °F 73% 29.92 in 6.2 mi SW 8.1 mph - N/A   Partly Cloudy
9:00 PM 69.8 °F - 62.6 °F 78% 29.95 in 6.2 mi SSW 10.4 mph - N/A   Partly Cloudy
10:00 PM 69 °F - 62 °F 74% 29.98 in 6 mi SSW 8.1 mph - -   Scattered Clouds
10:00 PM 69.8 °F - 62.6 °F 78% 29.98 in 6.2 mi SSW 8.1 mph - N/A   Partly Cloudy
11:00 PM 68.0 °F - 62.6 °F 83% 30.01 in 6.2 mi South 6.9 mph - N/A   Partly Cloudy